This is the latest recevied weather packets stored in our database for station/object KC9GSD. If no packets are shown the sender has not sent any weather packets the latest 10 day(s).
| Time | Temp. | Humidity | Pressure | Rain* | Wind** | Luminosity | Snow |
|---|---|---|---|---|---|---|---|
| 1777830668 | 18.33° C | 53% | 1020.6 hPa | 0 mm | - | 828 W/m² | - |
| 1777830365 | 18.33° C | 48% | 1020.7 hPa | 0 mm | - | 835 W/m² | - |
| 1777830062 | 18.89° C | 50% | 1020.8 hPa | 0 mm | - | 836 W/m² | - |
| 1777829756 | 18.33° C | 56% | 1020.7 hPa | 0 mm | - | 832 W/m² | - |
| 1777829453 | 17.78° C | 44% | 1020.8 hPa | 0 mm | - | 833 W/m² | - |
| 1777829151 | 17.22° C | 51% | 1020.9 hPa | 0 mm | - | 833 W/m² | - |
| 1777828848 | 17.78° C | 53% | 1020.9 hPa | 0 mm | - | 829 W/m² | - |
| 1777828544 | 17.78° C | 47% | 1021.1 hPa | 0 mm | - | 822 W/m² | - |
| 1777828242 | 17.22° C | 53% | 1021 hPa | 0 mm | - | 813 W/m² | - |
| 1777827938 | 16.67° C | 52% | 1021.1 hPa | 0 mm | - | 816 W/m² | - |
| 1777827635 | 16.11° C | 47% | 1021.3 hPa | 0 mm | - | 811 W/m² | - |
| 1777827333 | 16.67° C | 50% | 1021.5 hPa | 0 mm | - | 808 W/m² | - |
| 1777827029 | 16.67° C | 46% | 1021.2 hPa | 0 mm | - | 800 W/m² | - |
| 1777826726 | 16.67° C | 54% | 1021.4 hPa | 0 mm | - | 792 W/m² | - |
| 1777826423 | 16.67° C | 51% | 1021.5 hPa | 0 mm | - | 790 W/m² | - |
| 1777826120 | 16.67° C | 49% | 1021.5 hPa | 0 mm | - | 783 W/m² | - |
| 1777825817 | 16.67° C | 50% | 1021.4 hPa | 0 mm | - | 778 W/m² | - |
| 1777825514 | 16.11° C | 56% | 1021.5 hPa | 0 mm | - | 770 W/m² | - |
| 1777825212 | 15.56° C | 48% | 1021.5 hPa | 0 mm | - | 759 W/m² | - |
| 1777824909 | 16.11° C | 58% | 1021.6 hPa | 0 mm | - | 751 W/m² | - |
| 1777824604 | 16.11° C | 51% | 1021.5 hPa | 0 mm | - | 743 W/m² | - |
| 1777824301 | 16.67° C | 49% | 1021.6 hPa | 0 mm | - | 738 W/m² | - |
| 1777823996 | 16.11° C | 52% | 1021.6 hPa | 0 mm | - | 727 W/m² | - |
| 1777823694 | 16.11° C | 49% | 1021.6 hPa | 0 mm | - | 722 W/m² | - |
| 1777823390 | 15° C | 54% | 1021.6 hPa | 0 mm | - | 718 W/m² | - |
* Rain latest hour (hover to see other rain measurements)
** Current wind speed in m/s (hover to see current wind gust speed)